RH
71 66 62 68 65 65 67 57 54 41 36 36 40 42 39 33 38 44 47 51 54 64 66 65 64 60 57 57 58 61 64 65 64 62 54 45 27 13 11 14 17 23 28 30
47 62 65 65 58 60 57 54 52 49 41 26 26 30 34 34 37 44 47 52 56 63 64 63 62 59 56 56 59 64 67 67 64 57 49 33 15 12 14 17 24 29 31 33
58 42 42 54 46 54 52 50 50 56 39 29 33 36 35 33 37 42 46 53 56 62 63 64 62 59 56 57 63 68 68 65 59 53 40 18 12 15 18 26 30 30 30 31
79 50 75 40 32 33 38 38 40 38 35 30 35 39 38 34 35 39 44 51 56 63 65 65 64 61 59 59 66 69 66 59 55 46 23 13 14 18 27 32 31 30 28 29
71 61 47 39 35 36 43 44 34 36 36 49 48 45 54 46 43 45 46 53 60 67 70 68 65 63 61 61 70 68 60 56 45 27 14 14 18 28 32 32 30 27 28 28
83 77 70 43 35 31 32 55 40 36 38 52 47 66 71 57 54 56 59 63 68 73 73 70 66 66 66 71 71 62 55 50 34 15 15 18 29 33 34 34 29 28 29 34
88 83 76 38 34 33 52 53 44 36 42 51 64 59 62 64 65 65 68 70 71 72 70 70 69 67 70 72 65 54 53 40 16 15 18 29 35 37 36 31 30 31 32 35
94 96 92 38 39 45 53 44 41 45 49 66 66 68 69 69 67 63 61 68 70 68 68 68 68 70 74 67 56 57 46 17 15 18 28 37 39 37 30 32 34 36 40 40
84 80 50 50 51 47 48 45 51 54 55 55 66 67 64 65 62 62 64 67 68 67 68 69 72 76 74 60 58 50 17 15 18 27 38 40 38 34 35 36 42 44 51 64
52 52 52 50 50 50 49 51 53 54 55 55 60 61 62 61 61 62 65 66 67 67 69 75 80 80 64 58 52 18 15 18 26 38 41 39 35 34 37 42 49 57 72 78
55 56 55 53 52 53 54 54 55 56 54 54 53 58 53 56 58 60 64 69 69 70 75 81 80 72 61 54 20 15 18 24 36 41 42 39 34 36 42 46 58 72 75 78
55 46 46 54 55 55 56 56 56 54 59 58 48 56 58 65 66 65 67 72 75 74 75 75 74 64 57 21 16 18 23 31 40 44 42 37 36 36 38 43 56 74 78 80
47 45 44 54 56 57 58 58 56 51 49 51 60 58 59 65 71 71 72 76 79 80 78 76 69 65 19 17 18 23 27 34 43 46 42 40 40 44 41 32 56 68 77 80
48 51 62 60 61 62 60 63 56 54 52 47 46 50 48 50 64 71 75 78 82 83 79 72 65 22 18 19 23 25 28 40 48 46 42 42 44 53 61 68 65 61 69 82
54 53 55 61 63 65 62 60 54 49 43 39 40 38 42 48 60 69 73 79 84 80 74 68 24 19 20 23 25 26 35 49 47 44 46 50 50 55 64 66 76 80 79 80
61 61 63 66 69 67 62 55 41 42 40 38 35 37 40 45 54 63 70 79 77 75 72 28 21 23 24 25 27 33 48 50 43 48 54 47 52 60 67 79 79 82 85 83
67 79 74 77 72 71 59 48 37 36 38 35 36 39 44 51 58 66 74 76 77 75 37 24 24 24 26 29 34 48 53 42 41 42 45 50 60 73 79 77 78 81 82 84
58 58 66 66 70 63 53 43 38 37 34 38 41 46 48 53 60 67 72 76 78 48 27 25 25 27 30 36 49 54 43 41 36 44 52 63 70 75 62 70 73 80 85 86
62 61 70 72 63 52 41 40 36 34 38 41 44 48 53 60 63 68 76 78 57 32 28 27 30 32 37 53 55 43 40 29 37 57 61 55 56 61 63 73 80 89 91 95
72 72 68 63 50 37 37 36 36 37 41 44 47 52 57 65 76 82 82 72 48 36 33 32 35 42 59 54 43 36 25 32 46 49 44 49 54 64 72 75 88 89 93 99
70 64 51 40 39 36 34 38 38 40 46 50 52 56 61 68 72 74 73 56 43 37 36 40 52 64 47 44 29 25 26 31 36 40 47 56 64 68 75 78 84 90 100 100
50 40 36 34 34 41 45 46 48 49 52 55 58 61 63 64 67 66 54 43 39 39 48 66 56 45 38 25 24 25 28 35 42 49 56 63 71 79 83 88 94 100 100 100
37 35 37 40 41 44 51 52 52 55 57 61 64 64 63 62 57 48 43 48 52 67 64 46 41 27 24 23 25 29 36 42 48 55 63 70 77 86 99 100 100 100 99 100
41 43 44 45 45 45 46 54 58 63 66 66 65 63 60 54 50 50 56 71 70 46 44 29 23 23 24 26 29 35 42 50 56 64 75 88 88 91 93 93 96 100 95 83
40 43 44 45 46 52 58 65 69 69 67 66 65 62 59 60 67 78 66 47 45 33 23 23 24 24 26 28 34 44 51 58 69 84 88 86 86 87 89 94 97 94 93 85
44 45 50 55 57 62 67 70 69 69 69 68 67 68 75 82 64 47 46 38 26 24 25 26 26 27 28 34 45 55 63 72 81 84 85 85 89 92 94 93 92 88 84 84
56 56 57 59 66 71 73 73 72 72 72 74 79 84 68 49 48 42 30 25 26 28 29 29 28 28 36 48 58 66 74 78 83 85 87 91 91 91 91 91 90 86 87 81
Wind_Speed
8 12 11 10 11 9 10 7 2 2 7 9 10 11 13 20 26 29 29 29 29 28 24 23 21 18 17 15 12 10 6 3 4 10 14 16 15 15 17 19 22 26 29 30
7 7 7 8 10 13 14 8 7 8 5 7 4 18 18 23 24 25 28 30 27 25 24 24 22 20 19 15 12 9 5 3 6 11 14 15 15 16 19 22 26 28 29 29
4 4 3 3 9 14 13 11 11 11 8 1 6 8 12 22 23 22 24 26 25 24 24 23 21 20 18 15 12 8 4 4 8 13 15 14 16 19 22 25 28 28 29 30
1 4 2 5 2 11 11 7 11 8 6 3 8 16 18 13 19 20 23 26 24 23 22 22 21 18 16 13 11 6 3 6 10 14 14 15 18 21 24 27 28 29 31 32
2 4 5 3 2 1 6 9 8 7 9 15 24 18 12 14 16 18 21 23 22 23 23 22 20 18 15 12 8 4 4 8 11 13 14 17 20 24 26 27 29 31 32 33
3 2 2 2 3 6 3 3 6 7 8 15 14 5 4 13 19 20 19 20 23 22 21 19 18 15 13 10 6 3 5 9 11 12 16 19 23 26 27 27 30 32 32 31
2 2 6 2 1 4 3 3 9 10 21 20 5 4 26 21 19 19 19 20 18 17 17 15 14 13 10 7 4 3 7 9 11 14 18 22 24 25 27 29 31 32 33 33
3 2 6 5 3 2 2 3 4 19 23 29 29 29 27 23 21 19 19 18 16 16 14 13 13 11 8 5 2 5 8 9 12 16 20 22 24 27 27 30 32 33 34 36
7 5 2 4 5 4 3 8 14 22 24 27 28 26 24 22 19 18 17 17 14 12 13 13 11 8 5 3 3 6 7 10 14 18 20 22 26 27 29 30 31 33 35 37
4 3 4 6 4 7 9 15 15 19 23 25 28 23 22 19 18 16 14 13 12 11 11 10 9 6 3 2 4 5 9 13 16 19 22 25 26 27 29 30 31 32 34 35
2 2 3 4 7 15 18 19 20 20 20 22 22 20 18 17 14 13 13 13 11 9 8 8 6 3 1 3 5 8 11 14 17 21 25 26 26 28 28 27 25 28 30 32
3 12 6 8 19 20 23 25 23 24 22 18 18 19 16 14 12 11 11 11 11 8 7 5 4 2 2 4 6 9 13 16 20 24 25 26 30 33 29 29 26 24 24 25
3 15 9 22 24 22 26 25 22 22 20 21 18 15 13 13 10 9 8 9 9 10 7 5 3 3 3 5 8 11 15 20 23 24 26 28 30 30 35 35 31 26 24 25
20 24 18 23 15 22 25 23 21 20 18 16 15 11 9 8 8 7 7 7 8 7 5 4 4 3 5 7 10 14 18 21 22 24 26 28 27 29 29 31 35 37 33 27
19 6 18 20 27 25 24 23 22 20 17 14 11 8 7 7 7 6 6 6 6 6 4 3 4 6 6 9 13 18 20 22 23 25 26 26 27 28 29 30 30 33 35 34
13 19 24 28 27 25 24 21 21 18 14 12 9 7 6 5 4 4 4 5 4 4 4 5 5 6 9 13 17 19 21 22 23 24 25 27 27 28 29 29 32 32 32 35
27 21 25 24 27 25 22 19 17 16 14 10 8 7 6 5 4 4 4 4 5 5 5 4 6 9 12 15 18 20 21 23 23 24 24 25 27 28 28 30 30 31 33 34
13 15 20 26 31 28 22 18 17 14 11 9 8 7 6 4 3 2 2 4 5 5 5 6 8 11 14 17 19 20 22 23 24 23 24 25 25 25 28 29 30 32 34 35
11 18 22 28 27 25 22 20 16 13 11 9 7 5 4 3 0 1 2 3 3 4 7 8 10 14 16 18 19 21 23 24 23 23 24 26 26 27 27 28 30 30 33 35
25 27 30 27 23 22 21 16 14 12 9 6 5 4 3 1 1 2 2 2 4 6 8 11 14 16 17 18 20 23 23 22 22 24 26 25 26 26 27 29 30 32 32 31
29 30 30 29 25 20 17 14 11 9 7 5 3 2 1 0 1 1 2 4 5 6 9 12 14 15 16 20 22 22 22 22 23 25 25 25 26 27 30 31 31 31 31 30
31 31 28 25 22 20 15 12 9 7 5 3 2 0 0 1 1 2 3 5 6 9 11 12 14 17 19 21 22 22 21 22 23 24 24 25 27 29 29 30 31 31 29 30
29 26 24 21 18 16 13 9 6 4 3 2 1 0 1 1 1 2 3 4 7 9 11 13 16 18 19 20 21 21 21 22 23 24 25 26 27 28 30 31 30 29 29 30
26 22 20 17 14 11 9 8 5 4 3 1 1 1 1 1 1 1 3 6 8 10 13 15 16 17 19 20 20 21 22 23 24 25 25 26 29 30 30 29 28 28 28 26
20 18 15 13 10 9 8 7 6 4 2 2 2 2 1 1 2 3 4 7 10 12 12 14 16 17 19 20 21 22 23 23 25 25 27 27 27 28 28 28 27 27 26 26
16 14 12 10 9 8 8 7 5 3 2 2 3 2 1 1 2 4 7 9 10 11 13 15 17 19 20 21 22 22 23 24 25 26 26 27 27 27 27 26 26 25 24 23
14 11 11 11 10 8 7 5 3 3 3 2 2 1 0 2 4 7 8 9 11 13 15 17 18 20 21 22 23 23 24 25 24 25 25 25 24 24 24 24 24 23 22 20
Wind_Direction
260 138 150 170 183 208 228 234 210 227 145 167 169 160 159 164 162 164 170 174 177 177 181 182 183 187 195 205 204 202 209 251 325 336 337 335 334 335 334 333 333 332 329 328
66 147 146 190 195 204 221 222 260 272 295 133 134 154 145 165 173 169 175 176 177 179 180 185 187 189 199 208 204 198 209 277 330 337 338 337 337 336 335 335 333 330 328 326
59 141 110 293 214 205 217 212 220 228 244 240 110 127 153 165 176 174 174 175 178 180 183 187 191 199 205 208 195 197 221 308 331 340 340 338 337 337 335 333 330 328 327 326
255 122 163 251 1 225 216 226 216 237 264 41 136 94 79 137 163 169 177 175 176 176 180 186 192 198 204 198 191 198 262 315 335 342 339 337 335 334 333 330 330 328 328 328
155 235 293 206 293 121 171 237 216 206 206 113 112 98 54 89 134 138 149 161 167 176 181 184 192 198 197 189 186 216 285 324 339 340 336 335 336 335 333 329 330 331 328 327
27 174 240 53 350 327 334 280 331 227 157 135 132 137 175 134 132 134 147 159 168 177 183 188 188 192 186 181 192 248 314 332 340 337 337 337 336 333 332 331 329 328 327 328
244 325 306 102 155 322 105 256 328 329 139 137 94 144 145 151 139 146 152 158 165 168 171 174 173 175 178 184 219 286 325 340 340 339 338 336 332 332 331 330 328 329 329 329
138 213 271 141 96 139 176 28 45 98 124 110 115 122 136 140 139 143 144 145 149 154 159 163 168 178 183 205 249 319 339 342 339 338 336 334 333 331 331 331 330 328 326 327
187 209 151 66 95 109 110 121 104 117 128 130 133 138 140 139 139 137 138 142 152 158 161 165 171 178 207 237 303 334 341 338 337 335 336 335 333 332 330 331 327 324 325 325
137 194 164 164 144 140 151 133 128 134 136 141 137 141 138 138 138 142 145 151 161 166 167 167 175 194 224 279 323 333 332 334 336 336 334 333 333 334 331 329 326 324 323 324
118 100 74 198 181 145 141 142 137 133 138 137 137 137 138 140 144 149 154 160 170 175 177 177 184 198 251 318 321 322 329 335 336 332 332 332 333 332 328 326 322 320 318 319
207 183 176 177 167 162 151 142 143 140 132 135 138 138 143 142 150 157 162 165 170 176 188 180 193 249 265 294 314 324 335 334 331 331 331 333 332 328 330 328 327 321 318 318
157 141 137 149 154 163 154 151 147 141 141 138 135 139 144 144 152 159 162 168 180 189 194 201 227 242 275 308 321 332 330 329 329 330 333 330 327 328 329 333 331 329 326 324
133 123 109 142 149 157 149 147 144 139 137 135 137 139 140 139 148 160 165 176 186 195 207 215 222 259 297 312 325 326 327 327 328 330 327 327 330 328 327 327 328 331 333 328
157 114 156 149 153 156 157 152 143 138 136 134 133 131 132 135 145 161 175 187 193 202 205 215 248 275 300 317 322 323 325 328 330 327 326 329 326 328 327 327 327 322 326 328
155 141 150 157 159 158 154 149 143 139 141 135 131 129 132 141 150 157 169 176 195 211 226 241 259 289 314 317 319 323 325 328 327 323 324 327 329 329 330 326 322 325 323 324
141 135 153 156 159 154 149 149 149 145 141 139 132 128 131 131 134 147 161 184 231 246 246 258 286 309 312 315 320 323 325 326 326 322 326 329 329 328 324 322 322 320 322 322
192 185 177 169 156 149 149 147 145 141 139 133 128 126 120 115 130 156 213 229 227 235 260 285 303 307 313 316 319 322 323 326 328 327 329 327 326 320 322 322 322 321 322 323
167 156 152 154 157 152 145 142 140 135 129 126 127 123 116 126 235 286 252 230 234 257 280 300 309 310 312 317 320 323 328 329 329 327 323 323 324 324 323 322 323 320 320 322
144 146 148 147 147 145 140 136 132 128 124 124 118 111 106 102 222 242 245 246 266 290 298 303 306 311 315 319 323 327 327 327 326 324 325 324 323 324 321 321 321 322 326 331
143 141 137 139 137 134 131 128 128 123 118 115 104 87 69 56 299 302 269 260 282 293 298 303 309 314 321 324 327 327 328 327 325 325 324 324 323 322 321 323 324 327 330 330
139 137 135 135 135 130 128 127 124 119 115 102 87 100 273 322 316 275 269 281 296 301 307 314 318 322 325 326 327 328 328 327 325 324 324 324 322 320 321 325 326 326 326 327
136 134 133 133 133 133 133 131 125 118 117 130 151 218 289 309 279 266 281 302 307 313 318 321 322 324 325 326 328 330 329 328 326 325 324 322 322 323 322 320 321 322 327 328
135 134 132 133 135 137 138 134 136 141 150 158 203 220 236 208 210 291 306 307 312 318 324 325 325 325 326 329 330 330 331 329 327 326 326 324 321 319 319 321 323 324 323 326
135 133 134 141 143 141 144 149 155 160 170 159 150 148 164 274 308 318 313 320 323 324 324 326 328 328 330 332 331 331 331 331 330 326 321 320 323 323 323 324 321 321 321 323
135 138 142 143 147 152 160 163 171 158 161 155 153 153 184 306 322 327 323 322 326 328 331 334 334 333 334 334 334 334 332 331 328 326 325 325 325 324 323 323 324 325 326 326
138 142 150 151 153 157 162 166 171 173 181 178 189 189 245 328 324 320 324 331 334 336 337 337 336 335 336 336 335 333 331 329 328 328 328 326 327 327 328 328 327 329 327 328